ISS (ZARYA) 1 25544U 98067A 12037.58861690 .00009544 00000-0 12695-3 0 9589 2 25544 051.6422 062.1565 0020255 013.6755 127.2191 15.58718309757490 PROGRESS-M 03M (Decayed 2010-04-27) 1 35948U 09056A 10117.56794139 .00057297 00000-0 30008-3 0 2169 2 35948 051.6454 130.1536 0024769 309.7886 143.2205 15.79775315 30688 SOYUZ-TMA 17 (Decayed 2010-06-02) 1 36129U 09074A 10152.50217123 +.00026765 +00000-0 +17876-3 0 01250 2 36129 051.6473 310.9826 0009003 011.7112 093.2006 15.75086113025636 PROGRESS-M 04M (Decayed 2010-07-01) 1 36361U 10003A 10182.28873843 .00008791 00000-0 66850-4 0 3110 2 36361 051.6466 157.9492 0005434 041.5198 168.6128 15.73211891 23342 SOYUZ-TMA 18 (Decayed 2010-09-25) 1 36505U 10011A 10267.90480479 +.00016900 +00000-0 +13455-3 0 01415 2 36505 051.6447 080.4253 0006959 030.1913 105.1212 15.71308598679153 PROGRESS M-05M (Decayed 2010-11-15) 1 36521U 10018A 10319.06336046 .00014054 00000-0 12023-3 0 2458 2 36521 051.6461 179.0759 0018719 305.6145 207.7795 15.69561123 31527